Location: Unspecified
(0.0000°N, 0.0000°E)
Time: 02:55:56
(UTC+00:00)

STARLINK-5319 - Pass Details

Date: 25 January 2023
Orbit: 202 x 294 km, 70.0° (Epoch: 25 January)

Event Time Altitude Azimuth Distance (km) Brightness Sun altitude
Rises 19:13:32 0° 205° (SSW) 1,966 7.2 -14.5°
Reaches altitude 10° 19:15:29 10° 211° (SSW) 1,139 6.0 -14.9°
Maximum altitude 19:17:53 45° 286° (WNW) 403 3.3 -15.5°
Enters shadow 19:19:15 20° 352° (N) 724 4.1 -15.8°
